SCP
5 6 5 4 3 2 2 2 2 1 2 2 1 1 1 1 1 1 1 1 1 1 2 1 2 2 3 3 2 2 2 1 1 1 1 1 1 1 1 1 1 1 1
5 5 5 5 3 2 2 2 2 2 2 2 1 1 1 1 1 1 1 1 1 1 1 1 2 2 3 3 3 2 2 2 2 2 1 1 1 1 1 1 1 1 1
3 4 5 5 4 3 2 2 2 2 2 2 1 1 1 1 1 1 1 1 1 1 1 1 2 2 2 3 3 3 2 2 2 2 1 1 1 1 1 1 1 1 1
3 4 5 6 5 4 3 2 2 2 2 1 1 1 1 1 1 2 2 2 2 2 2 2 2 2 3 3 3 3 3 3 3 2 2 1 1 1 1 1 1 1 1
4 5 6 7 5 4 3 2 2 2 2 2 2 2 2 2 2 2 2 2 2 2 3 3 3 3 3 4 4 4 3 3 3 3 2 2 2 1 1 1 1 1 1
6 6 6 5 4 3 2 2 2 2 2 2 2 2 2 2 1 1 1 2 2 3 3 3 3 4 4 4 4 4 4 4 4 4 3 3 3 3 2 2 1 1 1
7 7 5 3 3 2 2 2 2 2 2 2 2 2 2 1 1 1 1 2 2 3 3 4 4 4 5 5 5 4 4 4 4 4 4 3 3 3 3 2 2 1 1
8 6 4 3 3 3 3 3 2 2 2 2 2 2 1 1 1 0 1 1 2 2 3 3 4 4 6 7 6 6 5 4 3 3 4 3 3 2 2 2 2 2 2
7 6 5 4 4 4 4 3 3 3 2 2 2 2 1 1 1 0 1 1 1 2 2 2 3 4 5 6 6 6 5 5 4 3 3 3 2 1 1 2 3 3 2
7 5 4 4 5 5 5 5 4 3 3 2 2 1 1 1 1 0 0 1 1 2 2 2 2 3 3 3 4 5 5 6 6 5 3 3 2 1 1 2 2 3 3
6 4 4 6 8 6 5 5 4 3 3 2 2 2 1 1 1 0 0 1 1 2 3 3 3 2 1 1 2 3 4 5 7 7 6 4 3 2 2 2 2 3 3
5 4 4 8 10 7 5 5 4 4 3 2 2 2 2 1 1 0 0 0 1 2 3 4 3 2 1 0 1 2 2 3 5 7 7 7 5 4 3 2 2 2 2
5 4 5 7 8 8 6 6 5 4 4 3 3 3 2 2 1 0 0 0 1 1 2 3 3 1 0 0 0 0 1 1 3 5 7 8 7 6 4 2 2 2 2
5 5 5 5 7 8 8 7 6 6 5 5 4 4 3 2 2 1 1 1 1 1 1 2 1 1 1 0 0 0 1 1 2 3 5 6 8 7 5 3 2 2 2
5 5 5 6 8 9 8 7 6 6 6 6 5 4 3 2 2 1 1 1 1 0 1 1 1 1 1 1 1 1 1 2 2 2 3 4 6 7 6 3 2 2 2
4 5 6 7 9 9 8 6 5 5 4 4 4 4 2 1 1 1 1 1 0 0 0 1 2 2 2 2 1 1 1 1 2 2 2 3 4 5 5 4 2 2 2
4 5 7 9 9 9 8 7 5 4 3 2 2 2 1 1 0 0 0 0 0 0 0 1 2 3 3 2 1 1 1 1 2 2 2 2 3 4 4 4 3 2 2
4 5 8 10 10 9 8 7 6 5 3 1 0 0 0 0 0 0 0 0 0 0 0 1 2 3 3 3 2 2 1 2 2 2 2 2 2 3 4 4 3 2 2
6 7 9 10 10 8 7 6 5 4 2 1 0 0 0 0 0 0 0 0 0 0 1 1 2 3 4 3 3 2 2 2 2 2 2 2 2 2 3 3 4 3 3
7 8 8 8 7 5 4 4 3 2 1 0 0 0 0 0 0 0 0 0 0 0 1 1 1 3 4 4 3 2 2 2 2 2 2 2 2 2 2 3 4 4 3
7 6 6 6 4 3 2 2 1 1 0 0 0 0 0 0 0 0 0 0 0 0 0 1 1 2 3 3 3 2 2 2 2 2 2 2 2 2 2 3 3 3 2
5 5 5 5 3 3 2 1 1 0 0 0 0 0 0 0 0 0 0 0 0 0 0 0 1 1 2 2 2 2 2 2 2 2 2 2 2 1 1 2 2 1 1
5 5 5 5 4 3 2 1 0 0 0 0 0 0 0 0 0 0 0 0 0 0 0 0 1 1 1 1 1 1 1 1 2 2 2 2 2 1 1 1 1 1 1
4 4 4 4 3 3 2 1 0 0 0 0 0 0 0 0 0 0 0 0 0 0 0 0 0 0 1 1 1 1 1 1 1 1 1 1 1 1 1 1 1 1 1
4 4 3 3 3 2 1 1 0 0 0 0 0 0 0 0 0 0 0 0 0 0 0 0 0 0 0 0 1 0 0 0 0 0 1 1 1 1 1 1 1 1 1
4 4 3 3 3 2 1 1 0 0 0 0 0 0 0 0 0 0 0 0 0 0 0 0 0 0 0 0 0 0 0 0 0 0 0 0 1 1 1 1 1 1 2
Wind_Speed
6 6 5 4 4 4 4 4 4 3 3 3 3 3 3 2 2 2 2 2 2 1 1 2 2 2 1 1 2 2 2 2 3 3 2 1 1 2 1 1 2 2 2
6 5 5 4 4 4 4 4 3 3 3 3 3 3 3 3 3 3 3 2 2 2 2 2 2 1 2 2 1 2 2 3 3 4 2 1 2 2 2 2 2 2 2
6 6 5 5 5 5 4 3 3 2 2 2 3 3 3 3 3 3 3 2 2 2 2 2 2 2 2 2 2 2 2 2 2 3 3 1 1 1 1 2 2 2 3
6 6 6 6 6 5 4 3 3 3 3 3 3 3 3 3 3 3 3 3 2 2 2 2 3 3 3 3 2 2 2 1 2 2 2 2 1 1 1 2 2 2 2
6 6 6 5 4 4 4 3 3 3 3 3 3 3 3 2 3 3 3 3 3 2 2 2 3 3 4 3 2 2 2 2 2 2 2 2 2 1 2 2 2 2 2
6 6 5 5 5 4 4 4 4 3 3 3 3 3 3 2 3 4 3 3 3 3 2 2 2 3 3 3 3 3 3 3 3 3 3 3 4 3 3 2 2 2 2
6 5 5 5 5 5 5 4 4 4 3 3 3 3 3 2 3 3 4 3 2 2 2 2 2 2 1 1 1 2 2 3 5 5 5 5 4 4 3 3 3 3 3
5 5 5 5 5 4 4 4 4 3 4 4 3 3 3 3 3 4 3 2 2 2 3 3 2 2 2 1 1 1 2 2 3 4 4 5 5 4 4 4 4 3 3
5 5 5 5 5 5 4 4 4 4 3 3 3 4 3 3 4 4 3 2 1 2 2 2 2 2 2 2 1 1 2 3 3 2 3 4 4 4 3 2 2 2 2
5 5 4 4 5 5 5 4 3 3 3 3 2 2 3 3 3 4 3 2 1 1 1 1 1 2 2 2 2 2 2 3 3 3 3 3 3 2 2 3 3 3 2
4 4 4 4 5 5 4 3 3 3 3 2 2 2 2 2 3 4 4 3 3 2 1 1 1 1 1 1 1 2 3 2 2 2 2 2 2 2 2 2 3 3 3
3 3 3 3 4 3 4 3 3 3 3 3 2 1 1 1 2 3 3 3 3 2 2 1 1 1 1 0 0 1 1 1 1 1 2 2 3 3 3 2 2 3 4
3 3 3 3 3 3 4 4 3 3 3 3 3 2 1 1 1 2 3 3 3 2 1 2 2 1 1 1 1 1 1 1 1 1 2 3 3 3 3 2 2 2 2
2 2 2 3 2 2 2 3 3 3 3 3 3 3 2 2 1 1 1 1 2 1 1 2 2 1 1 1 1 1 1 0 1 2 2 3 2 2 2 2 2 2 2
2 2 2 2 2 2 1 1 2 2 4 4 4 3 4 3 3 4 3 2 2 2 2 1 1 1 1 1 1 1 1 1 1 2 2 2 2 2 2 2 1 1 1
2 2 2 2 2 2 2 1 2 1 1 3 4 4 2 3 4 4 3 3 4 4 3 1 1 1 1 1 1 1 1 1 1 2 1 2 2 2 2 2 2 1 2
2 2 2 2 3 3 3 3 1 2 3 2 2 4 4 4 4 4 3 3 4 4 2 2 2 2 2 2 2 2 1 1 1 1 1 2 2 2 2 2 2 2 2
2 2 2 2 2 3 3 3 3 2 1 1 1 1 3 5 5 5 4 4 2 1 1 2 2 2 2 2 2 2 2 1 1 1 2 2 2 2 2 2 2 3 3
1 1 2 2 2 2 2 2 2 2 2 1 0 1 1 2 3 3 4 2 2 2 2 3 3 2 2 2 2 2 2 2 2 2 2 2 2 2 3 3 2 3 3
1 2 2 2 2 2 2 2 2 2 2 2 2 1 1 2 1 1 2 2 2 2 2 3 2 2 2 2 2 2 2 2 2 2 2 2 2 2 3 3 2 2 2
1 1 2 2 2 2 2 2 2 3 2 2 2 3 4 2 2 2 2 2 2 2 2 2 2 2 2 2 2 2 2 2 2 2 2 2 2 2 2 2 2 2 2
1 1 1 1 1 2 2 2 2 2 2 2 1 1 3 2 2 2 2 2 2 1 2 2 2 2 2 2 2 2 2 2 2 2 2 2 2 2 2 2 1 1 1
1 2 2 1 1 2 1 1 1 1 2 1 1 1 1 1 1 1 1 1 0 0 1 1 1 1 1 1 1 2 2 3 3 3 3 3 3 2 2 2 2 2 2
2 2 2 1 1 1 1 1 1 1 1 1 1 1 1 1 1 0 0 0 0 0 0 0 1 1 1 1 1 1 2 3 3 3 4 4 3 2 2 2 2 2 2
2 2 2 2 2 2 2 1 1 1 1 1 1 1 1 1 1 0 0 0 0 0 1 1 1 1 2 2 2 2 2 2 2 2 2 3 3 3 3 3 2 2 2
2 2 2 2 2 2 2 1 1 2 2 1 2 1 1 1 0 0 0 0 1 1 1 1 1 1 2 2 2 2 1 2 2 2 2 2 2 2 3 2 3 2 3
Wind_Direction
190 190 196 195 191 187 195 205 204 207 197 194 191 188 187 188 188 177 195 202 204 224 222 206 233 228 229 233 213 205 208 203 244 277 270 288 269 274 279 261 247 252 264
186 181 189 187 183 186 197 205 203 206 202 196 183 183 191 193 192 187 204 210 205 220 224 211 242 237 228 238 223 222 218 210 225 265 283 282 263 265 277 274 273 263 257
179 179 185 187 186 191 197 197 193 193 190 189 181 190 200 197 194 196 203 217 219 221 220 217 237 231 251 256 243 238 237 228 221 238 266 268 279 282 292 285 280 281 275
178 180 186 192 193 194 191 189 191 189 188 200 194 192 196 197 202 200 195 204 214 225 228 225 229 227 234 242 245 241 238 242 234 238 258 269 262 264 248 271 290 287 282
174 182 189 191 185 177 174 180 187 189 200 199 192 192 195 197 209 198 195 200 207 220 236 237 235 234 234 235 237 230 224 237 244 250 264 269 262 250 252 249 265 285 276
181 189 184 179 180 181 183 178 180 187 190 189 194 191 198 217 211 200 192 198 207 215 234 254 257 253 249 245 238 232 220 226 235 239 251 253 256 249 246 237 243 274 280
181 184 180 179 184 190 192 182 184 189 184 191 199 192 199 214 204 197 189 188 204 222 233 243 258 270 254 261 264 268 261 245 227 228 243 250 252 245 235 239 234 238 250
180 183 184 182 187 184 181 187 192 187 188 192 194 196 196 213 196 189 178 169 186 222 233 229 232 254 257 234 242 301 293 282 254 236 244 258 258 251 228 232 237 245 254
182 185 185 181 184 181 185 195 198 187 189 190 189 187 185 202 190 181 168 163 186 228 236 229 225 242 256 214 187 253 294 301 302 288 271 276 280 272 241 222 224 235 263
195 196 182 179 184 187 191 194 196 183 183 173 170 183 185 192 183 169 162 160 200 242 265 268 241 229 244 215 205 223 265 286 311 326 326 324 317 313 260 221 224 231 249
187 188 184 185 191 186 179 178 174 170 160 161 163 165 174 191 185 179 179 187 201 209 225 269 283 190 208 236 214 241 255 266 293 294 305 318 325 321 294 256 234 228 234
163 173 180 190 198 182 168 167 165 166 166 171 166 163 155 188 195 200 190 191 188 188 206 224 222 178 178 120 92 301 297 307 311 315 319 320 317 313 306 284 259 244 242
149 164 174 187 197 181 170 172 171 169 175 184 177 185 195 191 192 190 185 182 175 176 189 177 179 165 140 78 11 357 14 25 333 305 301 297 295 296 303 304 296 279 277
157 173 168 171 179 168 164 172 177 184 185 187 187 190 195 193 200 202 191 173 154 145 155 150 148 138 99 51 26 8 351 317 265 279 293 299 306 308 315 312 294 294 301
170 181 171 169 168 151 136 155 191 202 197 191 195 189 188 202 217 204 186 180 178 176 144 118 95 68 26 357 349 340 336 336 308 298 298 308 314 317 320 321 290 277 275
171 182 179 172 168 163 149 84 42 133 168 185 187 181 192 197 178 183 183 164 151 143 125 148 184 209 235 255 273 294 295 298 300 291 287 297 304 308 313 323 314 291 282
187 197 191 180 180 181 181 177 171 41 67 91 148 169 171 169 165 170 165 141 138 135 128 180 204 217 237 245 248 253 263 277 282 278 281 289 293 296 302 309 313 311 300
190 196 193 195 190 191 194 194 189 182 169 27 19 169 173 169 170 169 152 120 119 145 181 206 221 226 232 242 250 258 260 264 267 274 281 284 285 287 294 299 297 303 301
199 194 189 181 177 183 180 177 181 182 181 184 152 7 129 146 154 163 153 160 185 204 215 223 229 229 233 238 244 246 245 250 261 268 275 279 278 276 279 284 287 297 295
188 177 186 164 161 172 176 177 184 186 188 192 203 200 154 133 148 176 193 202 205 220 225 225 228 228 230 238 242 241 246 253 255 255 265 272 273 269 272 283 292 300 299
169 167 166 165 180 182 185 188 192 194 201 206 214 208 188 183 195 205 208 217 221 225 231 230 227 226 228 235 239 242 249 257 257 256 258 264 265 268 272 273 275 284 294
158 167 167 166 167 164 177 190 193 193 199 210 211 189 190 188 193 201 206 215 220 222 223 221 227 232 233 232 230 233 243 256 261 259 260 263 261 263 269 272 283 290 289
139 138 138 135 141 143 149 154 159 168 174 194 181 168 185 202 201 194 197 238 248 234 232 216 223 239 255 255 242 231 236 248 252 247 246 251 250 249 254 259 264 273 281
105 120 125 119 114 118 122 120 124 137 147 148 145 150 159 159 155 155 138 64 359 337 310 236 220 239 261 277 274 267 263 264 260 245 230 230 238 244 245 251 257 262 270
93 108 114 115 108 100 93 91 96 100 109 115 120 121 120 117 110 77 38 336 304 324 329 314 289 272 278 282 288 289 287 273 268 265 232 222 228 234 240 248 252 261 265
82 90 91 97 101 102 107 106 98 97 96 98 105 109 109 106 98 53 328 319 333 329 318 309 315 313 315 315 314 316 300 289 289 285 255 224 223 233 237 245 250 255 263